WetterOnline ( https://www.wetteronline.de )

Wetter aktuell Lorraine

Aktuelles Wetter: Metz-Nancy-Lorraine (264m)

6-stündlich | Neueste Meldungen
Ortszeit Temperatur Wetter
Mo, 03.10. 20:00 11.8° C bedeckt
Mo, 03.10. 14:00 12.1° C bedeckt
Mo, 03.10. 8:00 6.5° C Nebel
Mo, 03.10. 2:00 8.0° C Nebel
So, 02.10. 20:00 12.5° C bedeckt
So, 02.10. 14:00 16.3° C bedeckt
So, 02.10. 8:00 11.9° C Sprühregen
So, 02.10. 2:00 12.9° C bedeckt
Ortszeit Temperatur Wetter
Di, 04.10. 1:00 8.1° C -
Di, 04.10. 0:00 7.9° C -
Mo, 03.10. 23:00 9.6° C -
Mo, 03.10. 22:00 10.2° C -
Mo, 03.10. 21:00 10.6° C -
Mo, 03.10. 20:00 11.8° C bedeckt
Mo, 03.10. 19:00 13.5° C bewölkt
Ortszeit Relative Feuchte Sichtweite
Mo, 03.10. 20:00 82% 25 km
Mo, 03.10. 14:00 90% 16 km
Mo, 03.10. 8:00 99% 100 m
Mo, 03.10. 2:00 99% 100 m
So, 02.10. 20:00 98% 19 km
So, 02.10. 14:00 94% 18 km
So, 02.10. 8:00 97% 6 km
So, 02.10. 2:00 90% 35 km
Ortszeit Relative Feuchte Sichtweite
Di, 04.10. 1:00 92% 14 km
Di, 04.10. 0:00 91% 17 km
Mo, 03.10. 23:00 87% 21 km
Mo, 03.10. 22:00 84% 25 km
Mo, 03.10. 21:00 83% 24 km
Mo, 03.10. 20:00 82% 25 km
Mo, 03.10. 19:00 77% 18 km
Ortszeit Niederschlagsmenge Niederschlagsart
Mo, 03.10. 20:00 0.0 l/m2 in 12 Std. -
Mo, 03.10. 14:00 0.0 l/m2 in 6 Std. -
Mo, 03.10. 8:00 0.0 l/m2 in 12 Std. -
Mo, 03.10. 2:00 0.0 l/m2 in 6 Std. -
So, 02.10. 20:00 17 l/m2 in 12 Std. -
So, 02.10. 14:00 2 l/m2 in 6 Std. -
So, 02.10. 8:00 3 l/m2 in 12 Std. -
So, 02.10. 2:00 0.4 l/m2 in 6 Std. -
Ortszeit Niederschlagsmenge Niederschlagsart
Di, 04.10. 1:00 0.0 l/m2 in 1 Std. -
Di, 04.10. 0:00 0.0 l/m2 in 1 Std. -
Mo, 03.10. 23:00 keine Meldung -
Mo, 03.10. 22:00 0.0 l/m2 in 1 Std. -
Mo, 03.10. 21:00 0.0 l/m2 in 1 Std. -
Mo, 03.10. 20:00 keine Meldung -
Mo, 03.10. 19:00 0.0 l/m2 in 1 Std. -
Ortszeit Stärke Spitze Richtung
km/h Bft. km/h Grad Sektor
Mo, 03.10. 20:00 11 2 13 80° O
Mo, 03.10. 14:00 7 2 20 80° O
Mo, 03.10. 8:00 6 1 9 30° NO
Mo, 03.10. 2:00 2 1 6 320° NW
So, 02.10. 20:00 7 2 11 280° W
So, 02.10. 14:00 15 3 39 290° W
So, 02.10. 8:00 4 1 15 280° W
So, 02.10. 2:00 19 3 28 210° SW
Ortszeit Stärke Spitze Richtung
km/h Bft. km/h Grad Sektor
Di, 04.10. 1:00 6 1 17 70° O
Di, 04.10. 0:00 13 3 19 100° O
Mo, 03.10. 23:00 17 3 20 100° O
Mo, 03.10. 22:00 15 3 17 90° O
Mo, 03.10. 21:00 15 3 17 80° O
Mo, 03.10. 20:00 11 2 13 80° O
Mo, 03.10. 19:00 9 2 15 60° NO
Ortszeit Untergrenze Bedeckung Gattung
total tief tief mittel hoch
Mo, 03.10. 20:00 - 8/8 - - - -
Mo, 03.10. 14:00 - 8/8 - - - -
Mo, 03.10. 8:00 - - - - - -
Mo, 03.10. 2:00 - - - - - -
So, 02.10. 20:00 - 8/8 - - - -
So, 02.10. 14:00 - 8/8 - - - -
So, 02.10. 8:00 - 8/8 - - - -
So, 02.10. 2:00 - 8/8 - - - -
Ortszeit Bedeckungsgrad in Achtel und Wolkenuntergrenze
Di, 04.10. 1:00 -
Di, 04.10. 0:00 -
Mo, 03.10. 23:00 -
Mo, 03.10. 22:00 -
Mo, 03.10. 21:00 -
Mo, 03.10. 20:00 8
Mo, 03.10. 19:00 7
Ortszeit Luftdruck NN (hPa) Tendenz (hPa in 3 Std.)
Mo, 03.10. 20:00 1026 - 1,0
Mo, 03.10. 14:00 1028 - 0,7
Mo, 03.10. 8:00 1029 + 1,0
Mo, 03.10. 2:00 1027 + 1,3
So, 02.10. 20:00 1023 + 1,9
So, 02.10. 14:00 1020 + 0,2
So, 02.10. 8:00 1020 - 1,0
So, 02.10. 2:00 1020 + 1,8
Ortszeit Luftdruck NN (hPa) Tendenz (hPa in 3 Std.)
Di, 04.10. 1:00 1025 - 0,5
Di, 04.10. 0:00 1026 - 0,5
Mo, 03.10. 23:00 1026 - 0,6
Mo, 03.10. 22:00 1026 - 0,9
Mo, 03.10. 21:00 1026 - 1,0
Mo, 03.10. 20:00 1026 - 1,0
Mo, 03.10. 19:00 1026 - 1,1
Ortszeit Schneehöhe (cm)
Mo, 03.10. 20:00 0
Mo, 03.10. 14:00 -
Mo, 03.10. 8:00 0
Mo, 03.10. 2:00 0
So, 02.10. 20:00 0
So, 02.10. 14:00 0
So, 02.10. 8:00 0
So, 02.10. 2:00 0
Ortszeit Schneehöhe (cm)
Di, 04.10. 1:00 -
Di, 04.10. 0:00 -
Mo, 03.10. 23:00 -
Mo, 03.10. 22:00 -
Mo, 03.10. 21:00 -
Mo, 03.10. 20:00 0
Mo, 03.10. 19:00 -
Link zu dieser Seite / Seite empfehlen

Das Wetter in ...